GFSMW_sfc_rhum_132.txt.gz
RH
12 11 20 31 42 46 46 52 82 96 98 99 99 100 98 98 97 98 92 95 94 94 94 95 96 94 95 95 96 97 95 97 96 97 99 98 93 82 80 82 85 86 88
12 12 25 40 45 51 59 67 64 64 75 88 97 97 97 97 92 93 96 95 96 96 95 95 96 95 95 97 96 93 95 97 95 94 96 99 99 95 82 80 79 84 83
13 31 42 53 75 76 72 69 74 78 76 65 70 97 98 99 99 99 97 96 97 97 94 94 96 95 93 96 96 94 92 95 97 92 94 98 95 93 88 80 80 84 85
22 34 43 80 73 75 69 65 64 69 83 87 74 90 97 96 97 94 95 95 95 96 97 95 95 95 94 95 95 94 92 91 97 95 79 80 80 86 96 83 80 81 82
32 36 56 62 65 68 74 66 65 65 76 87 91 95 93 96 98 98 95 95 95 91 96 97 96 96 95 94 95 96 94 91 90 90 89 78 82 62 73 84 93 80 77
37 46 55 61 71 71 67 65 66 78 83 86 90 91 93 95 99 99 98 98 98 95 95 97 96 95 96 97 96 95 94 95 91 89 85 80 75 75 67 71 77 80 78
36 52 61 63 66 66 65 61 64 72 81 85 91 92 92 94 96 98 98 97 98 99 98 97 98 98 97 96 95 95 96 94 94 91 89 84 73 66 61 63 74 83 88
39 55 56 59 65 66 64 65 67 72 75 83 89 92 91 95 94 96 98 94 93 93 93 97 97 96 97 97 96 96 95 94 95 92 90 90 83 84 69 63 68 78 93
48 47 50 59 64 66 69 68 67 75 79 84 88 85 91 90 94 93 97 96 92 90 94 94 96 97 97 97 97 96 96 96 95 94 93 91 90 91 85 64 62 65 82
56 56 52 63 63 66 70 71 70 75 78 79 84 86 88 88 89 93 95 98 96 95 95 96 95 96 97 96 96 95 94 95 96 96 94 92 92 94 92 84 76 62 64
71 63 49 59 62 74 75 76 75 76 84 84 82 87 91 89 92 94 96 96 96 97 96 96 97 98 98 98 97 97 97 98 97 97 97 96 91 94 94 86 78 75 68
62 68 66 63 71 73 72 74 76 78 81 82 83 86 88 89 87 87 88 94 96 97 95 94 95 96 98 98 98 98 98 98 97 95 96 96 96 96 92 91 86 84 78
63 51 70 68 71 73 77 77 76 80 80 84 89 88 88 87 90 86 86 88 93 94 97 96 95 95 96 96 96 94 94 95 94 95 97 96 94 97 96 95 94 90 91
55 66 66 68 73 72 74 75 77 80 81 83 84 86 88 86 89 85 84 88 89 93 97 96 95 94 95 94 94 96 96 94 95 96 95 94 97 95 94 97 96 96 95
65 65 67 73 70 71 73 74 76 77 79 80 81 82 80 81 83 84 84 82 87 90 94 97 95 94 94 95 94 94 96 97 97 98 95 94 96 99 98 94 98 97 96
63 62 62 63 66 67 71 72 77 80 78 77 78 77 78 79 81 83 85 82 86 88 96 98 97 97 96 100 100 99 98 98 98 98 98 97 99 99 100 100 100 95 95
68 62 63 67 66 72 67 75 77 75 76 78 76 75 77 80 83 81 84 88 88 91 92 98 97 98 98 100 100 100 98 98 98 98 100 100 100 100 100 100 100 99 94
67 61 59 66 69 69 70 71 71 72 78 76 76 76 78 80 80 83 84 88 90 94 97 99 99 99 100 100 100 100 100 99 100 100 100 100 100 100 100 100 100 100 100
59 59 58 64 66 70 70 71 73 73 74 75 78 78 81 82 82 87 89 89 93 94 98 99 99 99 99 99 99 99 99 100 100 100 100 100 100 99 99 100 100 99 99
61 64 62 63 68 69 71 73 77 77 78 79 81 81 82 84 87 90 92 91 94 98 99 99 99 99 99 98 98 98 98 98 98 99 100 99 100 99 98 100 98 97 98
66 64 65 69 70 68 72 79 79 82 81 81 82 83 80 85 88 90 92 95 98 99 99 99 99 99 98 99 96 96 98 98 98 98 98 99 98 98 98 94 96 94 95
70 66 71 72 68 70 76 82 84 79 82 84 86 83 85 84 84 92 95 98 99 99 99 99 99 99 99 96 95 93 93 93 96 98 98 97 95 94 94 94 94 94 93
72 67 67 69 69 70 79 88 80 81 84 86 88 88 86 89 89 96 97 98 99 99 99 99 98 98 98 98 95 93 93 93 96 94 94 92 91 91 91 92 93 94 93
70 74 72 75 78 77 78 86 82 82 86 92 92 94 95 93 94 93 97 98 100 100 100 99 99 99 98 98 96 96 94 92 93 93 92 90 90 89 90 90 89 89 88
78 83 84 81 82 81 83 84 83 84 87 94 94 95 95 96 96 94 97 98 97 99 99 98 97 98 98 98 93 94 94 93 91 91 91 90 87 83 79 77 80 82 78
85 82 84 84 86 87 87 88 88 88 91 92 94 96 96 95 96 97 93 86 94 97 95 95 93 98 97 96 94 91 90 88 86 88 90 90 89 89 87 89 90 88 84

GFSMW_sfc_rhum_135.txt.gz
RH
16 15 14 26 27 35 46 87 92 95 96 98 98 98 97 98 98 98 96 96 95 93 96 96 97 96 96 96 96 98 97 99 96 99 99 100 96 96 97 91 89 94 94
17 16 28 52 65 59 61 84 89 98 94 94 96 98 98 97 94 97 97 96 95 95 94 95 96 96 97 97 98 95 97 97 95 95 94 99 98 98 94 87 86 94 90
18 17 40 81 83 83 85 77 79 90 96 92 99 99 99 99 100 99 98 97 96 96 94 94 95 96 96 98 97 95 93 96 97 92 93 99 98 96 96 93 88 86 90
19 19 59 81 77 75 76 79 81 87 83 76 74 90 98 98 97 96 95 96 97 98 96 96 95 96 96 95 95 95 93 91 96 95 87 84 84 90 99 96 96 92 87
19 24 56 68 71 72 76 79 77 86 90 92 82 90 90 96 97 98 98 98 97 96 96 97 96 96 95 94 95 97 95 92 92 92 89 93 85 82 86 93 96 90 85
21 36 69 69 80 75 77 85 82 87 89 89 90 92 93 96 98 99 99 98 97 98 96 94 94 94 95 95 96 94 94 95 92 92 88 87 83 83 86 84 84 89 88
35 37 73 78 75 77 73 74 75 80 86 92 94 94 94 92 96 97 98 96 95 98 99 97 97 96 94 93 94 95 95 95 95 94 92 88 80 69 69 69 81 92 97
45 43 66 71 72 79 76 68 69 76 80 81 85 88 91 97 97 96 98 98 98 98 97 98 98 96 95 95 96 97 96 96 96 94 94 93 88 83 73 68 80 93 98
75 72 74 77 82 86 82 75 72 76 80 84 83 87 90 90 94 96 97 98 97 96 96 97 97 97 98 97 97 97 98 98 96 96 94 93 90 90 88 77 78 84 94
81 83 83 84 84 81 76 78 76 79 78 80 84 87 91 92 94 97 98 97 97 98 97 97 98 98 97 98 98 98 97 98 98 96 95 93 90 92 90 90 89 83 81
80 90 88 82 79 75 74 77 76 75 79 81 83 90 92 92 91 91 92 93 97 96 98 96 97 97 98 98 98 98 97 98 96 96 96 95 91 93 96 94 92 90 88
84 89 90 87 83 76 74 75 74 73 79 83 86 89 90 88 90 90 88 90 93 94 96 98 97 97 96 97 97 98 97 97 97 95 96 97 96 96 96 96 96 94 92
83 90 90 85 81 74 71 71 72 76 80 84 87 86 86 88 89 85 88 86 88 90 92 97 98 98 98 98 97 96 97 97 96 96 97 96 97 98 97 97 95 92 92
83 82 82 84 78 72 70 69 76 79 82 83 85 87 85 82 83 84 86 87 86 88 86 93 96 96 97 98 98 98 98 97 97 96 96 94 93 93 95 98 95 93 97
90 84 81 72 67 67 67 69 73 78 78 80 84 82 82 81 82 84 84 84 87 85 85 88 95 97 97 97 97 96 96 96 96 95 95 95 96 100 97 96 96 96 96
66 62 67 65 66 65 66 68 72 74 76 81 79 77 78 79 82 84 86 86 89 89 89 90 89 98 97 100 100 98 96 96 97 97 98 96 100 100 100 100 100 97 95
60 61 63 66 68 68 66 73 74 72 76 76 73 75 77 80 82 81 83 84 87 90 92 92 92 96 97 100 100 100 95 96 96 97 99 100 100 100 100 100 100 100 96
65 63 64 65 66 65 69 72 70 73 76 76 75 75 78 82 82 83 85 88 86 91 94 94 97 98 98 100 100 100 99 100 100 100 100 100 100 100 100 100 100 100 100
66 65 65 65 67 68 70 73 75 76 76 79 80 79 82 82 81 85 89 90 92 92 94 96 98 99 99 100 100 100 99 100 100 100 100 100 100 100 100 100 100 100 100
70 71 68 67 69 72 74 77 80 80 82 83 84 82 80 80 84 88 90 90 91 95 98 99 98 99 99 99 100 99 99 100 100 100 100 99 100 100 100 100 100 100 99
73 69 66 71 70 69 76 84 83 82 82 82 81 80 79 82 83 85 88 91 94 98 99 99 99 99 99 99 99 99 99 99 99 99 99 100 99 98 98 98 100 99 98
74 73 73 72 71 71 79 85 84 80 78 79 80 81 81 80 80 88 90 92 96 98 99 99 98 99 99 98 98 98 98 96 98 98 99 99 96 96 95 95 96 96 94
77 75 83 77 74 74 79 84 85 80 81 81 84 88 84 83 88 93 94 96 97 98 99 99 98 98 99 99 99 99 97 95 97 97 97 95 94 94 95 94 94 94 95
79 80 82 82 81 79 78 86 78 83 86 90 92 93 94 92 91 94 92 96 98 98 99 100 99 99 99 99 98 98 97 95 95 95 94 93 93 92 93 93 92 93 94
81 82 84 81 83 84 85 84 86 83 88 91 92 91 93 96 96 95 96 95 92 97 98 98 97 98 99 98 96 97 98 96 94 94 93 94 92 93 92 91 90 89 89
88 83 83 83 86 88 89 86 90 90 92 92 92 94 96 95 96 97 95 81 80 90 92 96 94 98 93 94 93 95 95 93 92 92 94 95 94 93 92 92 92 89 87

GFSMW_sfc_rhum_138.txt.gz
RH
19 19 18 19 29 41 34 40 75 91 94 94 96 97 96 96 96 92 89 88 86 90 93 95 96 96 96 94 94 96 98 99 98 98 99 98 98 99 99 98 94 94 93
20 19 20 30 48 55 62 48 52 84 92 88 88 93 93 95 94 95 94 93 92 92 92 93 95 95 95 97 98 98 99 98 96 97 95 99 99 98 97 97 96 95 94
22 19 18 36 71 79 83 77 66 78 90 87 94 99 98 99 99 99 97 97 94 94 94 93 94 95 96 96 98 98 96 97 97 90 94 98 96 98 98 97 93 93 93
56 45 26 30 80 86 91 93 97 87 96 96 93 96 97 99 98 96 97 98 97 94 93 93 94 94 95 97 97 97 96 94 97 94 82 85 91 96 99 98 96 93 90
61 56 46 26 78 87 91 94 95 94 91 90 94 97 96 97 99 99 99 99 99 98 92 94 93 95 95 95 96 97 96 94 93 90 92 93 87 87 95 96 98 96 92
70 66 52 67 88 87 92 94 92 94 88 90 93 93 95 96 98 99 100 99 94 97 95 93 91 94 94 94 95 94 94 94 92 92 85 84 87 87 83 91 93 94 92
76 79 81 82 86 90 95 92 92 92 94 92 93 95 94 94 93 96 99 98 97 95 93 93 94 94 93 92 92 94 96 95 95 94 91 85 80 80 74 74 88 95 97
74 79 89 83 92 94 94 89 87 87 82 80 85 86 89 96 98 97 98 99 98 98 97 98 95 93 92 92 93 95 95 94 96 94 94 91 89 82 73 71 89 96 98
71 78 94 96 94 92 92 86 83 78 81 84 82 88 90 91 96 97 98 99 98 98 98 99 98 96 96 94 96 95 95 95 94 96 95 94 92 92 90 79 77 80 98
82 86 92 88 89 84 81 79 78 81 80 78 82 86 91 92 92 91 91 94 95 98 98 98 98 98 95 95 96 96 94 96 96 96 95 95 94 94 92 90 88 81 83
89 88 91 90 82 78 76 74 76 80 79 78 82 88 91 90 90 90 90 89 93 93 95 98 98 98 96 94 97 97 97 97 97 97 97 96 94 95 94 92 89 89 85
91 93 92 96 94 80 74 72 73 76 80 79 81 86 85 84 85 84 86 87 88 87 91 91 98 96 97 97 98 98 98 98 98 98 98 97 95 94 94 95 94 92 89
96 96 95 100 100 89 79 74 70 71 76 81 84 84 84 83 85 85 86 85 87 86 86 88 90 97 98 98 98 98 98 98 96 96 97 95 95 96 96 97 98 96 94
92 96 99 100 100 97 91 72 72 71 76 81 82 82 83 83 85 85 86 87 86 88 87 87 87 89 96 98 97 97 97 97 96 95 95 94 94 94 97 98 98 97 98
74 73 83 88 87 76 74 69 70 72 76 77 78 78 78 79 82 84 86 85 88 88 89 88 90 88 89 97 98 97 98 98 98 97 96 95 97 100 98 96 95 96 98
67 66 62 64 70 70 66 68 72 74 75 76 75 73 76 77 82 84 86 85 83 84 87 87 90 92 87 100 100 100 98 98 98 98 98 96 100 100 100 100 100 98 97
68 66 65 65 65 70 67 73 73 72 74 74 73 75 77 80 83 82 83 83 86 88 89 90 91 93 94 100 100 100 97 98 98 96 97 100 100 100 100 100 100 100 98
73 71 70 67 66 64 70 73 72 73 76 76 77 78 81 80 78 79 82 85 86 90 92 92 92 96 95 100 100 100 98 98 98 99 100 100 100 100 100 100 100 100 100
74 73 68 64 67 66 69 75 77 75 76 80 82 79 78 79 80 83 86 87 90 91 92 93 97 98 97 97 99 99 98 100 100 100 100 100 100 100 100 100 100 100 100
72 73 72 65 69 70 72 78 81 79 79 79 80 78 79 80 82 83 87 88 89 91 92 97 97 96 97 95 97 99 99 100 100 100 100 99 100 100 100 100 100 100 100
75 70 75 76 75 73 77 83 82 81 79 78 76 77 79 81 78 85 86 88 88 92 97 98 96 95 97 97 96 98 100 100 100 100 100 100 100 100 100 100 100 100 100
79 74 74 82 75 74 81 81 81 76 77 76 77 78 81 80 77 85 84 86 88 92 97 99 98 97 97 97 96 96 97 99 100 100 100 100 99 98 98 99 97 96 95
81 76 79 81 75 76 81 87 80 75 77 78 79 77 77 78 85 87 89 86 86 90 92 97 98 97 98 99 96 96 97 97 99 99 99 98 96 96 96 96 95 93 95
82 82 81 82 80 79 78 87 78 77 81 88 91 90 92 89 91 92 93 95 95 91 90 94 98 98 98 98 97 98 98 97 97 98 98 96 96 95 96 96 95 94 91
87 87 82 80 84 84 84 84 82 81 82 90 93 92 92 93 93 92 95 96 95 94 97 94 98 98 98 97 95 96 98 97 96 95 96 97 96 97 95 94 92 91 89
87 88 84 84 87 88 87 86 82 86 88 92 92 94 94 94 94 94 92 77 80 87 86 92 97 97 95 91 90 92 91 90 92 96 96 98 97 96 95 95 95 92 91

GFSMW_sfc_rhum_141.txt.gz
RH
19 20 24 23 23 31 32 36 36 51 76 85 90 90 85 85 84 84 81 77 79 80 85 88 90 91 91 94 92 93 95 98 87 91 93 90 78 82 80 85 96 93 77
42 41 41 38 34 32 38 40 38 41 57 70 75 81 79 86 86 90 89 85 85 85 85 86 90 91 92 94 96 95 98 96 95 94 95 99 96 90 81 80 82 79 88
49 48 46 46 44 38 43 37 41 44 49 70 74 81 87 91 97 97 95 92 88 89 88 85 89 91 93 95 95 95 96 97 97 89 81 96 93 92 88 92 84 82 84
50 51 52 53 55 51 40 56 60 59 49 72 78 87 88 86 88 87 91 91 92 93 93 92 91 94 94 94 94 95 94 94 97 96 76 64 60 63 92 91 89 90 82
56 56 57 57 56 58 55 71 74 73 63 70 80 89 88 85 88 89 88 88 88 84 92 93 93 95 96 94 95 98 96 94 90 90 90 72 71 65 64 83 91 90 82
57 58 55 57 59 64 70 80 85 89 88 90 93 91 85 80 84 87 98 96 89 89 90 85 90 94 94 94 95 94 95 96 93 91 80 74 72 69 61 63 75 84 85
63 69 73 71 71 68 82 88 83 84 88 92 91 86 84 91 90 92 89 84 95 94 93 94 96 94 92 92 93 94 94 95 95 93 88 78 74 63 60 67 60 80 80
77 73 84 84 84 87 84 85 79 76 76 76 80 79 76 81 85 95 92 87 86 85 84 90 91 91 91 91 90 94 93 94 95 93 93 89 80 74 60 68 68 83 90
83 85 91 86 87 85 86 86 74 71 71 73 74 76 76 77 84 85 84 90 88 88 86 86 90 88 93 91 90 93 93 94 94 95 94 92 87 87 81 74 72 74 83
94 93 93 94 86 86 79 77 80 80 76 68 68 67 71 70 76 75 78 74 76 79 85 85 90 90 94 94 93 93 90 92 95 95 94 95 91 91 90 86 82 75 78
98 96 99 96 94 86 88 74 64 74 73 70 69 71 70 70 73 74 73 74 73 72 71 79 88 90 92 94 94 94 91 92 92 95 94 95 94 95 94 91 85 85 82
98 99 100 100 99 99 95 93 73 63 65 64 65 69 71 72 73 72 71 74 74 74 74 72 78 85 90 92 98 95 92 94 94 92 93 95 95 95 94 94 92 88 79
94 100 100 100 100 100 100 97 92 76 67 60 64 66 71 68 72 73 74 73 74 75 76 76 77 81 84 91 96 94 94 95 94 95 94 96 96 97 96 96 94 88 88
90 91 95 97 100 100 100 98 94 84 77 67 66 68 69 68 72 73 74 76 76 76 75 77 78 80 79 80 90 97 98 97 97 96 95 95 96 94 94 94 90 94 96
66 71 78 75 77 91 90 80 82 74 69 67 65 67 68 68 72 77 76 75 78 76 75 78 79 80 80 76 90 96 97 98 98 97 96 95 96 99 96 91 92 96 98
64 62 61 58 62 66 76 78 71 69 66 65 68 66 69 70 74 76 75 76 79 80 79 79 80 83 79 93 97 98 96 98 98 98 97 96 99 99 100 100 100 97 98
67 64 65 60 61 61 60 72 76 68 66 67 67 69 70 71 74 72 73 78 83 81 81 82 82 86 86 94 97 98 94 97 98 98 98 98 99 100 98 100 100 100 100
66 63 63 61 57 59 63 69 68 69 72 72 71 71 71 69 70 73 76 79 81 83 83 84 85 92 91 96 95 95 90 98 98 99 99 99 100 100 100 100 100 100 100
63 61 60 61 57 60 64 70 70 69 71 74 75 73 71 70 71 75 79 81 85 83 83 83 86 95 91 93 94 94 91 98 100 100 100 100 100 100 100 100 100 100 100
59 60 60 59 59 60 64 67 70 69 73 74 72 69 71 74 75 76 77 80 81 84 81 84 89 93 90 90 94 92 93 99 100 100 100 100 100 100 100 100 100 100 100
61 59 59 60 60 59 65 69 68 74 71 70 69 67 66 70 70 71 73 76 80 83 88 88 86 87 89 87 93 94 91 99 99 100 100 100 100 100 100 100 100 100 100
61 62 62 61 58 58 65 69 72 70 70 68 66 65 66 65 63 71 72 73 76 82 85 88 87 86 91 95 92 93 95 98 100 100 100 100 99 99 100 100 99 99 99
64 62 64 63 59 60 62 72 72 70 73 70 70 69 66 67 69 77 81 82 80 81 83 83 90 89 90 99 93 92 94 97 99 100 99 99 98 98 100 99 98 98 100
64 66 65 64 64 63 63 67 69 70 75 84 90 86 90 86 84 80 81 87 90 88 86 90 92 90 91 98 95 95 99 98 99 98 98 98 98 98 98 98 97 98 96
63 65 67 65 64 65 65 66 70 72 76 86 90 87 88 89 88 84 86 86 87 92 94 93 95 97 98 98 95 95 97 96 95 95 96 97 96 97 97 96 95 92 90
70 69 66 66 68 70 71 72 73 76 81 84 82 85 88 89 88 86 85 74 76 76 78 81 89 94 98 98 94 95 91 90 92 91 94 97 97 96 96 96 96 93 92

GFSMW_sfc_rhum_147.txt.gz
RH
17 18 22 28 36 39 39 41 35 36 30 24 28 41 48 47 48 46 51 51 55 75 83 69 62 71 68 71 72 66 68 63 59 60 75 77 75 73 64 66 60 54 54
21 23 32 36 42 44 49 49 49 41 31 25 23 27 33 38 42 47 52 52 54 66 72 76 74 70 73 76 83 81 87 79 67 66 76 84 81 64 62 61 59 61 55
34 36 39 43 44 48 54 55 57 59 49 36 28 28 31 41 45 48 49 52 55 61 73 73 72 74 74 78 84 88 92 94 94 74 71 91 86 71 60 69 64 66 68
42 44 46 48 48 51 54 56 60 61 60 64 43 41 36 33 40 46 47 50 57 60 67 73 74 77 81 78 82 85 91 93 97 96 86 75 58 71 74 61 69 69 69
47 49 48 48 47 55 57 61 62 63 68 74 72 69 60 40 37 41 53 58 60 66 69 76 78 82 84 79 86 92 93 94 96 96 90 87 83 75 81 76 84 76 76
49 48 46 46 47 56 60 64 71 70 70 76 76 81 85 68 47 44 51 60 68 72 71 74 85 76 82 84 85 90 86 88 91 93 92 89 85 79 78 74 76 74 71
50 52 49 51 53 57 63 69 81 78 76 82 82 82 85 86 77 60 59 69 79 84 80 77 86 85 87 90 84 87 81 86 90 92 94 88 86 79 73 71 74 76 63
46 46 51 57 60 65 70 73 80 88 79 81 84 81 84 88 85 71 72 73 91 93 92 93 90 92 90 91 93 84 77 81 88 91 92 92 90 82 82 75 77 82 78
50 50 55 65 69 70 73 79 77 87 86 81 85 82 86 86 90 93 87 92 91 87 76 80 81 91 94 87 85 89 89 83 87 90 90 90 88 85 79 77 75 80 85
52 54 62 68 64 70 68 74 78 84 95 84 85 87 86 86 84 87 83 83 81 82 85 88 86 89 83 90 90 95 95 91 89 90 90 91 90 89 85 84 80 82 82
49 53 61 62 61 62 68 74 77 85 94 95 89 87 91 84 81 79 78 68 65 65 66 67 71 80 79 79 89 92 90 94 94 92 92 94 90 92 92 91 88 87 86
46 50 57 65 71 70 71 77 82 84 92 97 96 91 94 87 86 78 67 65 60 60 56 57 58 61 72 75 80 85 88 94 96 94 95 94 91 94 90 91 91 89 85
42 49 51 93 100 100 96 80 94 95 90 93 94 95 90 96 84 75 71 64 61 58 54 54 57 57 62 64 71 72 82 92 90 92 92 91 92 97 96 96 96 94 91
41 45 48 63 100 100 99 87 87 100 96 90 91 89 89 90 89 79 69 68 61 60 58 57 56 58 55 55 73 75 80 81 82 93 93 94 93 95 96 97 96 96 96
42 42 44 45 47 53 56 58 61 70 93 85 73 69 69 69 74 77 81 76 71 59 58 58 58 59 56 66 78 79 79 80 78 77 79 88 96 98 97 96 95 95 98
39 38 39 40 42 45 46 50 58 59 66 76 68 57 60 58 60 64 62 63 63 59 59 59 60 62 52 94 94 91 80 76 78 81 75 79 99 100 100 100 100 97 98
39 40 41 41 43 44 43 50 55 54 56 59 59 57 55 55 57 55 57 60 62 62 62 63 62 64 64 88 92 93 75 74 76 83 82 81 84 100 94 100 100 100 100
40 39 39 40 40 41 43 49 49 52 57 57 58 58 56 56 52 54 58 60 59 65 66 66 64 67 63 84 91 93 72 76 77 82 91 95 98 99 98 99 100 100 98
39 37 37 38 38 39 42 47 50 51 56 59 59 56 54 54 54 57 60 59 60 60 62 61 65 69 71 85 88 83 78 80 82 80 88 98 99 100 100 99 100 100 100
37 36 37 36 37 38 41 45 50 52 57 61 61 54 54 53 53 56 58 57 58 58 60 65 71 71 67 77 84 81 78 90 89 88 97 94 99 100 100 99 99 100 100
37 35 35 37 36 38 41 48 47 55 57 58 58 56 55 55 52 56 56 57 58 63 70 73 69 66 68 70 80 86 83 94 95 90 89 89 94 96 97 99 99 99 100
34 33 36 36 35 36 40 42 48 53 55 58 60 60 60 55 53 61 61 61 65 73 78 80 75 76 76 80 82 84 88 91 97 98 96 98 95 96 98 98 99 100 100
32 32 34 37 37 37 38 44 49 51 59 63 68 66 66 64 67 73 74 73 73 77 80 82 82 81 81 85 80 81 85 90 95 93 96 95 94 94 98 99 99 100 100
36 34 36 38 42 40 40 43 51 56 63 80 89 89 91 87 82 78 81 85 87 85 84 86 86 87 83 83 83 83 86 85 87 88 88 90 96 96 97 98 99 100 100
38 40 43 45 44 42 44 46 54 61 67 83 90 92 89 88 88 86 88 87 91 83 88 90 92 95 91 87 77 77 82 86 87 92 93 93 93 92 91 92 94 95 97
50 52 52 51 49 47 51 56 60 68 78 82 84 87 88 88 88 86 86 76 74 71 70 73 80 85 75 72 74 74 73 74 78 86 88 95 96 94 91 91 94 94 95